When you browse on this site, cookies collect data to enhance your experience and personalize the content and advertising you see.
Visit our Privacy Policy to learn more. By continuing to use the site, you agree to this use of cookies and data.
  • In France
  • List of Countries
  • For 7 days
  • Water Temperature
  • Satellite Maps
  • Weather Map
  • Weather Widgets
  • user-avatar
    Login

    Hourly Weather Syultino

    Today, 19 November, Monday

    Time Temperature Precipitation Wind Pressure Humidity
    00:00 -2°C° 0 mm 2 mps 755 mmHg 75%
    01:00 -2°C° 0 mm 2 mps 755 mmHg 78%
    02:00 -2°C° 0 mm 2 mps 755 mmHg 79%
    03:00 -2°C° 0 mm 2 mps 755 mmHg 81%
    04:00 -2°C° 0 mm 2 mps 755 mmHg 80%
    05:00 -2°C° 0 mm 2 mps 755 mmHg 81%
    06:00 -2°C° 0 mm 2 mps 756 mmHg 82%
    07:00 -2°C° 0 mm 2 mps 756 mmHg 83%
    08:00 -2°C° 0.1 mm 2 mps 756 mmHg 85%
    09:00 -2°C° 0.1 mm 2 mps 756 mmHg 86%
    10:00 -2°C° 0 mm 3 mps 756 mmHg 86%
    11:00 -2°C° 0.2 mm 3 mps 756 mmHg 87%
    12:00 -1°C° 0.2 mm 2 mps 756 mmHg 88%
    13:00 -1°C° 0.2 mm 2 mps 756 mmHg 89%
    14:00 -1°C° 0.3 mm 2 mps 756 mmHg 91%
    15:00 -2°C° 0.3 mm 2 mps 756 mmHg 92%
    16:00 -2°C° 0.3 mm 2 mps 756 mmHg 94%
    17:00 -2°C° 0.3 mm 2 mps 756 mmHg 95%
    18:00 -2°C° 0.3 mm 2 mps 756 mmHg 95%
    19:00 -2°C° 0.3 mm 2 mps 756 mmHg 96%
    20:00 0°C° 0.2 mm 1 mps 756 mmHg 96%
    21:00 0°C° 0.2 mm 1 mps 756 mmHg 96%
    22:00 0°C° 0.2 mm 1 mps 756 mmHg 97%
    23:00 0°C° 0.1 mm 1 mps 755 mmHg 97%

    Tomorrow, 20 November, Tuesday

    Time Temperature Precipitation Wind Pressure Humidity
    00:00 0°C° 0.1 mm 1 mps 755 mmHg 97%
    01:00 0°C° 0.1 mm 1 mps 755 mmHg 97%
    02:00 0°C° 0.1 mm 1 mps 755 mmHg 97%
    03:00 0°C° 0.1 mm 1 mps 755 mmHg 97%
    04:00 0°C° 0.1 mm 1 mps 755 mmHg 97%
    05:00 0°C° 0.1 mm 1 mps 755 mmHg 97%
    06:00 0°C° 0.1 mm 1 mps 755 mmHg 97%
    07:00 0°C° 0.1 mm 1 mps 754 mmHg 97%
    08:00 0°C° 0.1 mm 1 mps 754 mmHg 96%
    09:00 0°C° 0.1 mm 1 mps 755 mmHg 96%
    10:00 0°C° 0.1 mm 1 mps 755 mmHg 95%
    11:00 0°C° 0 mm 1 mps 754 mmHg 94%
    12:00 +1°C° 0 mm 1 mps 754 mmHg 93%
    13:00 +1°C° 0 mm 1 mps 754 mmHg 92%
    14:00 +1°C° 0 mm 1 mps 754 mmHg 93%
    15:00 0°C° 0 mm 1 mps 754 mmHg 94%
    16:00 0°C° 0 mm 1 mps 753 mmHg 95%
    17:00 0°C° 0 mm 1 mps 753 mmHg 95%
    18:00 0°C° 0 mm 1 mps 753 mmHg 96%
    19:00 -2°C° 0 mm 2 mps 753 mmHg 96%
    20:00 -2°C° 0 mm 2 mps 752 mmHg 95%
    21:00 -3°C° 0 mm 2 mps 752 mmHg 94%
    22:00 -4°C° 0 mm 3 mps 752 mmHg 94%
    23:00 -4°C° 0 mm 3 mps 751 mmHg 93%

    Day after tomorrow, 21 November, Wednesday

    Time Temperature Precipitation Wind Pressure Humidity
    00:00 -4°C° 0 mm 3 mps 751 mmHg 92%
    01:00 -4°C° 0 mm 3 mps 750 mmHg 91%
    02:00 -4°C° 0 mm 4 mps 750 mmHg 89%
    03:00 -5°C° 0 mm 4 mps 749 mmHg 87%
    04:00 -6°C° 0 mm 5 mps 749 mmHg 86%
    05:00 -6°C° 0 mm 5 mps 748 mmHg 86%
    06:00 -7°C° 0 mm 5 mps 747 mmHg 86%
    07:00 -7°C° 0 mm 5 mps 747 mmHg 85%
    08:00 -7°C° 0.1 mm 5 mps 746 mmHg 86%
    09:00 -8°C° 0.1 mm 6 mps 745 mmHg 87%
    10:00 -8°C° 0.1 mm 6 mps 745 mmHg 87%
    11:00 -6°C° 0.4 mm 6 mps 744 mmHg 88%
    12:00 -6°C° 0.4 mm 6 mps 743 mmHg 89%
    13:00 -6°C° 0.4 mm 6 mps 742 mmHg 90%
    14:00 -6°C° 0.4 mm 6 mps 742 mmHg 90%
    15:00 -6°C° 0.4 mm 6 mps 742 mmHg 90%
    16:00 -6°C° 0.4 mm 5 mps 741 mmHg 90%
    17:00 -6°C° 0.2 mm 6 mps 741 mmHg 90%
    18:00 -5°C° 0.2 mm 6 mps 741 mmHg 90%
    19:00 -5°C° 0.2 mm 6 mps 740 mmHg 89%
    20:00 -6°C° 0.1 mm 6 mps 740 mmHg 88%
    21:00 -8°C° 0.1 mm 6 mps 740 mmHg 87%
    22:00 -9°C° 0.1 mm 6 mps 741 mmHg 86%
    23:00 -9°C° 0.1 mm 6 mps 741 mmHg 85%

    22 November, Thursday

    Time Temperature Precipitation Wind Pressure Humidity
    00:00 -8°C° 0.1 mm 5 mps 741 mmHg 84%
    01:00 -8°C° 0.1 mm 5 mps 741 mmHg 83%
    02:00 -10°C° 0 mm 5 mps 742 mmHg 85%
    03:00 -10°C° 0 mm 5 mps 742 mmHg 87%
    04:00 -10°C° 0 mm 4 mps 742 mmHg 89%
    05:00 -10°C° 0 mm 4 mps 742 mmHg 89%
    06:00 -10°C° 0 mm 4 mps 742 mmHg 89%
    07:00 -11°C° 0 mm 4 mps 741 mmHg 90%
    08:00 -11°C° 0 mm 5 mps 741 mmHg 90%
    09:00 -11°C° 0 mm 5 mps 741 mmHg 90%
    10:00 -11°C° 0 mm 6 mps 741 mmHg 91%
    11:00 -10°C° 0.1 mm 6 mps 740 mmHg 89%
    12:00 -10°C° 0.1 mm 6 mps 739 mmHg 88%
    13:00 -9°C° 0.1 mm 6 mps 738 mmHg 86%
    14:00 -9°C° 0.3 mm 7 mps 738 mmHg 87%
    15:00 -9°C° 0.3 mm 7 mps 737 mmHg 88%
    16:00 -9°C° 0.3 mm 7 mps 736 mmHg 89%
    17:00 -8°C° 0.3 mm 7 mps 736 mmHg 90%
    18:00 -8°C° 0.3 mm 7 mps 735 mmHg 90%
    19:00 -8°C° 0.3 mm 7 mps 735 mmHg 90%
    20:00 -8°C° 0.2 mm 7 mps 735 mmHg 89%
    21:00 -9°C° 0.2 mm 6 mps 735 mmHg 89%
    22:00 -9°C° 0.2 mm 6 mps 735 mmHg 88%
    23:00 -10°C° 0 mm 6 mps 735 mmHg 87%

    23 November, Friday

    Time Temperature Precipitation Wind Pressure Humidity
    00:00 -11°C° 0 mm 6 mps 736 mmHg 86%
    01:00 -13°C° 0 mm 7 mps 736 mmHg 84%
    02:00 -14°C° 0 mm 6 mps 737 mmHg 83%
    03:00 -15°C° 0 mm 6 mps 738 mmHg 81%
    04:00 -15°C° 0 mm 6 mps 739 mmHg 80%
    05:00 -16°C° 0 mm 6 mps 740 mmHg 81%
    06:00 -17°C° 0 mm 6 mps 741 mmHg 83%
    07:00 -17°C° 0 mm 5 mps 742 mmHg 84%
    08:00 -17°C° 0 mm 5 mps 743 mmHg 85%
    09:00 -17°C° 0 mm 5 mps 743 mmHg 86%
    10:00 -17°C° 0 mm 5 mps 744 mmHg 88%
    11:00 -15°C° 0 mm 5 mps 745 mmHg 87%
    12:00 -15°C° 0 mm 5 mps 746 mmHg 87%
    13:00 -14°C° 0 mm 5 mps 746 mmHg 87%
    14:00 -14°C° 0 mm 5 mps 747 mmHg 88%
    15:00 -14°C° 0 mm 5 mps 747 mmHg 88%
    16:00 -14°C° 0 mm 4 mps 748 mmHg 89%
    17:00 -14°C° 0 mm 4 mps 748 mmHg 89%
    18:00 -12°C° 0 mm 4 mps 749 mmHg 90%
    19:00 -12°C° 0 mm 3 mps 749 mmHg 90%
    20:00 -14°C° 0 mm 4 mps 750 mmHg 90%
    21:00 -14°C° 0 mm 4 mps 750 mmHg 90%
    22:00 -15°C° 0 mm 4 mps 750 mmHg 90%
    23:00 -15°C° 0 mm 4 mps 750 mmHg 91%

    24 November, Saturday

    Time Temperature Precipitation Wind Pressure Humidity
    00:00 -15°C° 0 mm 4 mps 751 mmHg 91%
    01:00 -15°C° 0 mm 5 mps 751 mmHg 91%
    02:00 -15°C° 0 mm 5 mps 751 mmHg 90%
    03:00 -15°C° 0 mm 6 mps 750 mmHg 89%
    04:00 -15°C° 0 mm 6 mps 750 mmHg 88%
    05:00 -14°C° 0 mm 7 mps 750 mmHg 87%
    06:00 -14°C° 0 mm 7 mps 750 mmHg 87%
    07:00 -15°C° 0 mm 8 mps 749 mmHg 86%
    08:00 -13°C° 0 mm 8 mps 749 mmHg 84%
    09:00 -14°C° 0 mm 9 mps 748 mmHg 82%
    10:00 -14°C° 0 mm 9 mps 748 mmHg 80%
    11:00 -12°C° 0 mm 9 mps 748 mmHg 81%
    12:00 -12°C° 0 mm 9 mps 747 mmHg 81%
    13:00 -11°C° 0 mm 9 mps 747 mmHg 82%
    14:00 -11°C° 0.1 mm 9 mps 746 mmHg 82%
    15:00 -10°C° 0.1 mm 9 mps 746 mmHg 83%
    16:00 -10°C° 0.1 mm 9 mps 746 mmHg 83%
    17:00 -9°C° 0.1 mm 9 mps 746 mmHg 84%
    18:00 -9°C° 0.1 mm 9 mps 746 mmHg 84%
    19:00 -9°C° 0.1 mm 9 mps 746 mmHg 84%
    20:00 -9°C° 0.1 mm 9 mps 746 mmHg 85%
    21:00 -7°C° 0.1 mm 8 mps 746 mmHg 86%
    22:00 -7°C° 0.1 mm 8 mps 746 mmHg 87%
    23:00 -7°C° 0 mm 7 mps 747 mmHg 88%
    Show more